Tracking 18852 objects as of 24-Nov-2017
HD Live streaming from Space Station
objects crossing your sky now

FENGYUN 1C DEB

Track FENGYUN 1C DEB now!
10-day predictions


NORAD ID: 29985
Int'l Code: 1999-025LK
Perigee: 846.7 km
Apogee: 887.3 km
Inclination: 99.0 °
Period: 102.1 minutes
Semi major axis: 7238 km
RCS: 0.129 m2 (medium)
Launch date: May 10, 1999
Source: People's Republic of China (PRC)
Launch site: Taiyaun Space Center, China (TSC)

Note: This is SATELLITE DEBRIS
aabbcc
Your satellite tracking list
Your tracking list is empty




NASA's NSSDC Master Catalog

Two Line Element Set (TLE):
1 29985U 99025LK  17327.64069025 -.00000005 +00000-0 +22775-4 0  9993
2 29985 099.0032 348.3248 0028045 228.6799 244.4397 14.09847660559021
Source of the keplerian elements: AFSPC